Weather History for Ironwood, MI

Change the Weather History Date:

Wednesday, January 29, 2014

  Actual Average Record
Temperature  
Mean Temperature 10 °F -  
Max Temperature 24 °F 23 °F 39 °F (2001)
Min Temperature -5 °F 8 °F -20 °F (2004)
Degree Days  
Heating Degree Days 56    
Moisture  
Dew Point -4 °F    
Average Humidity 55    
Maximum Humidity 78    
Minimum Humidity 42    
Precipitation  
Precipitation 0.00 in - - ()
Sea Level Pressure  
Sea Level Pressure 29.68 in    
Wind  
Wind Speed 15 mph (SW)    
Max Wind Speed 23 mph    
Max Gust Speed 34 mph    
Visibility 10 miles    
Events      
Averages and records for this station are not official NWS values.
T = Trace of Precipitation, MM = Missing Value Source: NWS Daily Summary

Daily Weather History Graph

Daily Weather History Graph

Search for Another Location

Airport:

Trip Planner

Search our weather history database for the weather conditions in past years. The results will help you decide how hot, cold, wet, or windy it might be!

Date:

Astronomy

Jan. 29, 2014 Rise Set
Actual Time 7:27 AM CST 5:00 PM CST
Civil Twilight 6:55 AM CST 5:32 PM CST
Nautical Twilight 6:18 AM CST 6:09 PM CST
Astronomical Twilight 5:43 AM CST 6:44 PM CST
Moon 6:05 AM CST (1/29) 4:00 PM CST (1/29)
Length of Visible Light 10h 37m
Length of Day
9h 32m
Waning Crescent, 2% of the Moon is Illuminated
Jan 29
Waning Crescent
Jan 30
New
Feb 6
First Quarter
Feb 14
Full
Feb 22
Last Quarter

Hourly Weather History & Observations

Time (CST) Temp. Windchill Dew Point Humidity Pressure Visibility Wind Dir Wind Speed Gust Speed Precip Events Conditions
12:15 AM 1.4 °F -20.5 °F -7.6 °F 66% 29.79 in 8.0 mi WSW 20.7 mph 27.6 mph N/A   Overcast
12:35 AM -0.4 °F -23.3 °F -9.4 °F 66% 29.79 in 10.0 mi WSW 21.9 mph 27.6 mph N/A   Scattered Clouds
12:55 AM -0.4 °F -21.2 °F -7.6 °F 72% 29.78 in 9.0 mi WSW 17.3 mph 27.6 mph N/A   Mostly Cloudy
1:15 AM -0.4 °F -22.8 °F -9.4 °F 66% 29.78 in 10.0 mi WSW 20.7 mph - N/A   Overcast
1:35 AM -0.4 °F -21.7 °F -9.4 °F 66% 29.78 in 10.0 mi WSW 18.4 mph 23.0 mph N/A   Overcast
1:55 AM -0.4 °F -18.4 °F -11.2 °F 60% 29.79 in 10.0 mi WSW 12.7 mph 19.6 mph N/A   Overcast
2:15 AM -0.4 °F -21.2 °F -9.4 °F 66% 29.79 in 10.0 mi WSW 17.3 mph 21.9 mph N/A   Overcast
2:35 AM -0.4 °F -19.2 °F -11.2 °F 60% 29.79 in 10.0 mi WSW 13.8 mph - N/A   Overcast
2:55 AM -0.4 °F -19.2 °F -11.2 °F 60% 29.79 in 10.0 mi WSW 13.8 mph - N/A   Overcast
3:15 AM -0.4 °F -19.2 °F -9.4 °F 66% 29.79 in 10.0 mi WSW 13.8 mph 18.4 mph N/A   Overcast
3:35 AM -0.4 °F -16.7 °F -11.2 °F 60% 29.79 in 10.0 mi WSW 10.4 mph 18.4 mph N/A   Overcast
3:55 AM -0.4 °F -18.4 °F -13.0 °F 55% 29.79 in 10.0 mi WSW 12.7 mph 16.1 mph N/A   Overcast
4:15 AM -2.2 °F -20.7 °F -13.0 °F 60% 29.79 in 10.0 mi WSW 12.7 mph - N/A   Mostly Cloudy
4:35 AM -2.2 °F -21.5 °F -11.2 °F 66% 29.79 in 10.0 mi WSW 13.8 mph - N/A   Partly Cloudy
4:55 AM -2.2 °F -19.9 °F -11.2 °F 66% 29.80 in 10.0 mi WSW 11.5 mph 16.1 mph N/A   Clear
5:15 AM -2.2 °F -18.0 °F -13.0 °F 60% 29.80 in 10.0 mi SW 9.2 mph - N/A   Clear
5:35 AM -4.0 °F -20.2 °F -14.8 °F 60% 29.81 in 10.0 mi WSW 9.2 mph - N/A   Clear
5:55 AM -5.8 °F -24.4 °F -14.8 °F 65% 29.80 in 10.0 mi WSW 11.5 mph - N/A   Clear
6:15 AM -4.0 °F -22.1 °F -11.2 °F 71% 29.80 in 10.0 mi WSW 11.5 mph - N/A   Clear
6:35 AM -4.0 °F -23.0 °F -14.8 °F 60% 29.80 in 10.0 mi WSW 12.7 mph - N/A   Clear
6:55 AM -5.8 °F -25.2 °F -13.0 °F 71% 29.80 in 10.0 mi WSW 12.7 mph - N/A   Clear
7:15 AM -5.8 °F -24.4 °F -14.8 °F 65% 29.80 in 10.0 mi WSW 11.5 mph - N/A   Clear
7:35 AM -5.8 °F -25.2 °F -11.2 °F 77% 29.80 in 10.0 mi WSW 12.7 mph - N/A   Clear
7:55 AM -4.0 °F -21.2 °F -14.8 °F 60% 29.79 in 10.0 mi SW 10.4 mph - N/A   Clear
8:15 AM -4.0 °F -17.8 °F -11.2 °F 71% 29.79 in 10.0 mi SW 6.9 mph - N/A   Clear
8:35 AM -4.0 °F -22.1 °F -14.8 °F 60% 29.80 in 10.0 mi SW 11.5 mph - N/A   Clear
8:55 AM -2.2 °F -18.9 °F -7.6 °F 78% 29.79 in 10.0 mi SW 10.4 mph - N/A   Clear
9:15 AM -0.4 °F -16.7 °F -11.2 °F 60% 29.80 in 10.0 mi SW 10.4 mph - N/A   Clear
9:35 AM -0.4 °F -16.7 °F -9.4 °F 66% 29.80 in 10.0 mi SW 10.4 mph - N/A   Clear
9:55 AM 1.4 °F -14.5 °F -9.4 °F 61% 29.77 in 10.0 mi SSW 10.4 mph - N/A   Clear
10:15 AM 3.2 °F -12.2 °F -9.4 °F 56% 29.78 in 10.0 mi SSW 10.4 mph - N/A   Clear
10:35 AM 5.0 °F -9.1 °F -7.6 °F 56% 29.78 in 10.0 mi SW 9.2 mph - N/A   Clear
10:55 AM 6.8 °F -4.8 °F -7.6 °F 52% 29.78 in 10.0 mi SSW 6.9 mph - N/A   Clear
11:15 AM 8.6 °F -5.5 °F -5.8 °F 52% 29.79 in 10.0 mi SW 10.4 mph - N/A   Clear
11:35 AM 10.4 °F -2.4 °F -4.0 °F 52% 29.77 in 10.0 mi SW 9.2 mph - N/A   Clear
11:55 AM 12.2 °F -1.8 °F -4.0 °F 48% 29.76 in 10.0 mi SW 11.5 mph - N/A   Clear
12:15 PM 12.2 °F -1.0 °F -4.0 °F 48% 29.74 in 10.0 mi SSW 10.4 mph - N/A   Clear
12:35 PM 15.8 °F 3.4 °F -2.2 °F 45% 29.73 in 10.0 mi SSW 10.4 mph 16.1 mph N/A   Clear
12:55 PM 15.8 °F 1.4 °F -2.2 °F 45% 29.72 in 10.0 mi SSW 13.8 mph 17.3 mph N/A   Clear
1:15 PM 17.6 °F 3.2 °F -0.4 °F 45% 29.71 in 10.0 mi SSW 15.0 mph 20.7 mph N/A   Clear
1:35 PM 17.6 °F 4.3 °F -0.4 °F 45% 29.70 in 10.0 mi SSW 12.7 mph 23.0 mph N/A   Clear
1:55 PM 19.4 °F 7.9 °F -0.4 °F 42% 29.69 in 10.0 mi SSW 10.4 mph - N/A   Clear
2:15 PM 19.4 °F 5.5 °F -0.4 °F 42% 29.68 in 10.0 mi SSW 15.0 mph 23.0 mph N/A   Clear
2:35 PM 19.4 °F 8.6 °F -0.4 °F 42% 29.66 in 10.0 mi SSW 9.2 mph 23.0 mph N/A   Clear
2:55 PM 19.4 °F 5.0 °F -0.4 °F 42% 29.65 in 10.0 mi SSW 16.1 mph 19.6 mph N/A   Clear
3:15 PM 19.4 °F 7.9 °F -0.4 °F 42% 29.64 in 10.0 mi South 10.4 mph 24.2 mph N/A   Scattered Clouds
3:35 PM 19.4 °F 9.5 °F -0.4 °F 42% 29.62 in 10.0 mi South 8.1 mph 21.9 mph N/A   Scattered Clouds
3:55 PM 19.4 °F 9.5 °F -0.4 °F 42% 29.60 in 10.0 mi South 8.1 mph 25.3 mph N/A   Scattered Clouds
4:15 PM 19.4 °F 5.5 °F 1.4 °F 46% 29.58 in 10.0 mi SSW 15.0 mph 19.6 mph N/A   Partly Cloudy
4:35 PM 19.4 °F 8.6 °F 1.4 °F 46% 29.57 in 10.0 mi South 9.2 mph 24.2 mph N/A   Clear
4:55 PM 17.6 °F 3.7 °F 1.4 °F 49% 29.55 in 10.0 mi South 13.8 mph 23.0 mph N/A   Mostly Cloudy
5:15 PM 19.4 °F 6.6 °F 1.4 °F 46% 29.54 in 9.0 mi South 12.7 mph 25.3 mph N/A   Mostly Cloudy
5:35 PM 19.4 °F 7.2 °F 1.4 °F 46% 29.53 in 8.0 mi South 11.5 mph 24.2 mph N/A   Mostly Cloudy
5:55 PM 19.4 °F 5.0 °F 3.2 °F 49% 29.53 in 8.0 mi SSW 16.1 mph 29.9 mph N/A   Overcast
6:15 PM 19.4 °F 2.5 °F 3.2 °F 49% 29.51 in 7.0 mi South 23.0 mph 31.1 mph N/A   Overcast
6:35 PM 19.4 °F 3.2 °F 3.2 °F 49% 29.51 in 5.0 mi South 20.7 mph 33.4 mph N/A   Overcast
6:55 PM 19.4 °F 4.1 °F 1.4 °F 46% 29.53 in 7.0 mi SSW 18.4 mph 31.1 mph N/A   Overcast
7:15 PM 19.4 °F 5.0 °F 1.4 °F 46% 29.53 in 8.0 mi South 16.1 mph 28.8 mph N/A   Overcast
7:35 PM 19.4 °F 3.6 °F 3.2 °F 49% 29.53 in 7.0 mi South 19.6 mph 29.9 mph N/A   Overcast
7:55 PM 19.4 °F 4.5 °F 3.2 °F 49% 29.51 in 7.0 mi SSW 17.3 mph 31.1 mph N/A   Overcast
8:15 PM 19.4 °F 2.8 °F 3.2 °F 49% 29.50 in 5.0 mi South 21.9 mph 34.5 mph N/A   Overcast
8:35 PM 19.4 °F 5.0 °F 5.0 °F 54% 29.50 in 8.0 mi South 16.1 mph 29.9 mph N/A   Overcast
8:55 PM 19.4 °F 3.6 °F 3.2 °F 49% 29.49 in 9.0 mi SSW 19.6 mph 26.5 mph N/A   Mostly Cloudy
9:15 PM 21.2 °F 8.3 °F 5.0 °F 50% 29.49 in 10.0 mi SSW 13.8 mph 20.7 mph N/A   Partly Cloudy
9:35 PM 21.2 °F 8.3 °F 6.8 °F 54% 29.48 in 10.0 mi SSW 13.8 mph 26.5 mph N/A   Mostly Cloudy
9:55 PM 23.0 °F 9.2 °F 6.8 °F 50% 29.48 in 10.0 mi SSW 17.3 mph 25.3 mph N/A   Overcast
10:15 PM 23.0 °F 9.6 °F 6.8 °F 50% 29.48 in 10.0 mi SSW 16.1 mph 23.0 mph N/A   Overcast
10:35 PM 24.8 °F 11.9 °F 8.6 °F 50% 29.48 in 10.0 mi SW 16.1 mph 23.0 mph N/A   Overcast
10:55 PM 24.8 °F 10.3 °F 10.4 °F 54% 29.48 in 10.0 mi SW 20.7 mph 25.3 mph N/A   Overcast
11:15 PM 24.8 °F 10.7 °F 10.4 °F 54% 29.47 in 10.0 mi SW 19.6 mph 28.8 mph N/A   Overcast
11:35 PM 24.8 °F 10.3 °F 10.4 °F 54% 29.47 in 10.0 mi SW 20.7 mph 27.6 mph N/A   Overcast
11:55 PM 24.8 °F 11.1 °F 10.4 °F 54% 29.46 in 10.0 mi SW 18.4 mph 25.3 mph N/A   Mostly Cloudy